Fort Morgan, CO

11:25 PM MDT on March 25, 2017 (GMT -0600)
Fort Morgan

Weather History for KFMM - May, 2013

Change the Weather History Date:

Monday, May 27, 2013

  Actual Average (KAKO) Record (KAKO)
Temperature  
Mean Temperature 66 °F -  
Max Temperature 79 °F 73 °F 92 °F (2006)
Min Temperature 53 °F 47 °F 33 °F (1950)
Cooling Degree Days 1    
Growing Degree Days 16 (Base 50)    
Moisture  
Dew Point 48 °F    
Average Humidity 59    
Maximum Humidity 91    
Minimum Humidity 24    
Precipitation  
Precipitation 0.00 in - - ()
Sea Level Pressure  
Sea Level Pressure 29.80 in    
Wind  
Wind Speed 8 mph (West)    
Max Wind Speed 25 mph    
Max Gust Speed 31 mph    
Visibility 10 miles    
Events Thunderstorm    
Averages and records for this station are not official NWS values.
T = Trace of Precipitation, MM = Missing Value Source: NWS Daily Summary

Daily Weather History Graph

Daily Weather History Graph

Search for Another Location

Airport or City:

Trip Planner

Search our weather history database for the weather conditions in past years. The results will help you decide how hot, cold, wet, or windy it might be!

Date:

Astronomy

May. 27, 2013 Rise Set
Actual Time 5:29 AM MDT 8:15 PM MDT
Civil Twilight 4:57 AM MDT 8:47 PM MDT
Nautical Twilight 4:17 AM MDT 9:27 PM MDT
Astronomical Twilight 3:31 AM MDT 10:13 PM MDT
Moon 10:56 PM MDT (5/27) 8:09 AM MDT (5/27)
Length of Visible Light 15h 49m
Length of Day
14h 45m
Waning Gibbous, 90% of the Moon is Illuminated
May 27
Waning Gibbous
May 31
Last Quarter
Jun 8
New
Jun 16
First Quarter
Jun 23
Full

Hourly Weather History & Observations

Time (MDT) Temp. Dew Point Humidity Pressure Visibility Wind Dir Wind Speed Gust Speed Precip Events Conditions
12:15 AM 64.8 °F 42.3 °F 44% 29.84 in 10.0 mi North 5.8 mph - N/A   Clear
12:35 AM 66.4 °F 45.0 °F 46% 29.82 in 10.0 mi NNE 11.5 mph - N/A   Clear
12:55 AM 63.5 °F 46.2 °F 53% 29.83 in 10.0 mi WNW 5.8 mph - N/A   Clear
1:15 AM 61.9 °F 45.1 °F 54% 29.82 in 10.0 mi Calm Calm - N/A   Clear
1:35 AM 63.3 °F 44.6 °F 50% 29.82 in 10.0 mi ENE 4.6 mph - N/A   Clear
1:55 AM 61.5 °F 46.4 °F 58% 29.82 in 10.0 mi Calm Calm - N/A   Clear
2:15 AM 62.2 °F 50.5 °F 65% 29.84 in 10.0 mi ENE 8.1 mph - N/A   Mostly Cloudy
2:35 AM 63.9 °F 52.7 °F 67% 29.87 in 10.0 mi WNW 4.6 mph - N/A Thunderstorm Thunderstorm
2:55 AM 63.5 °F 56.5 °F 78% 29.86 in 10.0 mi SE 8.1 mph - N/A Thunderstorm Overcast
3:15 AM 60.8 °F 56.5 °F 86% 29.86 in 5.0 mi SSE 5.8 mph - N/A   Overcast
3:35 AM 64.9 °F 51.6 °F 62% 29.84 in 10.0 mi SSW 4.6 mph 21.9 mph N/A Thunderstorm Thunderstorm
3:55 AM 65.7 °F 55.9 °F 71% 29.81 in 10.0 mi East 20.7 mph - N/A   Overcast
4:15 AM 65.1 °F 48.9 °F 56% 29.80 in 10.0 mi ESE 11.5 mph - N/A   Scattered Clouds
4:35 AM 65.8 °F 44.8 °F 47% 29.81 in 10.0 mi WSW 4.6 mph - N/A   Clear
4:55 AM 60.8 °F 51.4 °F 71% 29.81 in 10.0 mi SSW 8.1 mph - N/A   Clear
5:15 AM 58.3 °F 53.1 °F 83% 29.83 in 10.0 mi WSW 6.9 mph - N/A   Clear
5:35 AM 56.5 °F 53.1 °F 88% 29.82 in 10.0 mi West 8.1 mph - N/A   Clear
5:55 AM 55.4 °F 52.7 °F 91% 29.82 in 10.0 mi West 8.1 mph - N/A   Clear
6:15 AM 55.4 °F 52.2 °F 89% 29.82 in 10.0 mi West 6.9 mph - N/A   Clear
6:35 AM 56.5 °F 53.1 °F 88% 29.82 in 10.0 mi West 9.2 mph - N/A   Clear
6:55 AM 60.6 °F 55.6 °F 83% 29.83 in 10.0 mi West 9.2 mph - N/A   Clear
7:15 AM 61.2 °F 55.0 °F 80% 29.84 in 10.0 mi West 9.2 mph - N/A   Clear
7:35 AM 61.0 °F 54.5 °F 79% 29.84 in 10.0 mi West 9.2 mph - N/A   Clear
7:55 AM 60.8 °F 54.1 °F 79% 29.85 in 10.0 mi West 6.9 mph - N/A   Clear
8:15 AM 61.2 °F 54.3 °F 78% 29.84 in 10.0 mi West 8.1 mph - N/A   Clear
8:35 AM 64.8 °F 56.5 °F 74% 29.84 in 10.0 mi West 9.2 mph - N/A   Clear
8:55 AM 67.3 °F 57.4 °F 70% 29.84 in 10.0 mi West 8.1 mph - N/A   Clear
9:15 AM 68.9 °F 56.8 °F 65% 29.84 in 10.0 mi SW 5.8 mph - N/A   Clear
9:35 AM 70.2 °F 57.0 °F 63% 29.84 in 10.0 mi WSW 4.6 mph - N/A   Clear
9:55 AM 71.6 °F 57.7 °F 62% 29.83 in 10.0 mi West 4.6 mph - N/A   Clear
10:15 AM 75.0 °F 59.2 °F 58% 29.83 in 10.0 mi SW 9.2 mph - N/A   Clear
10:35 AM 77.7 °F 57.4 °F 49% 29.82 in 10.0 mi West 8.1 mph - N/A   Clear
10:55 AM 75.2 °F 53.6 °F 47% 29.82 in 10.0 mi West 10.4 mph - N/A   Clear
11:15 AM 78.6 °F 48.7 °F 35% 29.82 in 10.0 mi WSW 4.6 mph - N/A   Clear
11:35 AM 79.7 °F 46.0 °F 30% 29.82 in 10.0 mi WSW 9.2 mph - N/A   Clear
11:55 AM 79.7 °F 40.1 °F 24% 29.81 in 10.0 mi WSW 10.4 mph 16.1 mph N/A   Clear
12:15 PM - - N/A% 29.80 in 10.0 mi SSW 10.4 mph - N/A   Clear
12:35 PM - - N/A% 29.79 in 10.0 mi WSW 6.9 mph - N/A   Clear
12:55 PM - - N/A% 29.78 in 10.0 mi West 9.2 mph - N/A   Clear
1:15 PM - - N/A% 29.77 in 10.0 mi WNW 8.1 mph - N/A   Clear
1:35 PM - - N/A% 29.76 in 10.0 mi West 5.8 mph 9.2 mph N/A   Clear
1:55 PM - - N/A% 29.76 in 10.0 mi SSW 3.5 mph - N/A   Clear
2:15 PM - - N/A% 29.74 in 10.0 mi West 11.5 mph - N/A   Clear
2:35 PM - - N/A% 29.74 in 10.0 mi South 8.1 mph - N/A   Clear
2:55 PM - - N/A% 29.74 in 10.0 mi WNW 9.2 mph 20.7 mph N/A   Clear
3:15 PM - - N/A% 29.74 in 10.0 mi West 5.8 mph 19.6 mph N/A   Clear
3:35 PM - - N/A% 29.73 in 10.0 mi WSW 5.8 mph - N/A   Clear
3:55 PM - - N/A% 29.72 in 10.0 mi NNW 4.6 mph - N/A   Clear
4:15 PM - - N/A% 29.71 in 10.0 mi South 16.1 mph 19.6 mph N/A   Clear
4:35 PM - - N/A% 29.70 in 10.0 mi SE 13.8 mph 18.4 mph N/A   Clear
4:55 PM 79.0 °F 41.2 °F 26% 29.70 in 10.0 mi SSE 20.7 mph 24.2 mph N/A   Clear
5:15 PM 78.1 °F 38.8 °F 24% 29.71 in 10.0 mi South 10.4 mph - N/A   Scattered Clouds
5:35 PM 78.6 °F 38.8 °F 24% 29.72 in 10.0 mi West 10.4 mph - N/A   Scattered Clouds
5:55 PM 78.6 °F 39.0 °F 24% 29.75 in 10.0 mi North 17.3 mph 28.8 mph N/A   Scattered Clouds
6:15 PM 72.3 °F 41.0 °F 32% 29.75 in 10.0 mi NE 19.6 mph 28.8 mph N/A   Clear
6:35 PM 71.6 °F 42.1 °F 34% 29.76 in 10.0 mi ENE 25.3 mph 31.1 mph N/A   Clear
6:55 PM 68.5 °F 40.8 °F 36% 29.77 in 10.0 mi ENE 13.8 mph - N/A   Clear
7:15 PM 67.3 °F 37.8 °F 34% 29.78 in 10.0 mi NE 15.0 mph - N/A   Clear
7:35 PM 65.5 °F 41.4 °F 41% 29.78 in 10.0 mi NE 11.5 mph - N/A   Scattered Clouds
7:55 PM 63.5 °F 43.7 °F 48% 29.79 in 10.0 mi NE 10.4 mph - N/A   Scattered Clouds
8:15 PM 61.3 °F 44.8 °F 55% 29.78 in 10.0 mi NE 9.2 mph - N/A   Clear
8:35 PM 59.2 °F 44.8 °F 59% 29.78 in 10.0 mi ENE 8.1 mph - N/A   Clear
8:55 PM 58.3 °F 45.5 °F 62% 29.77 in 10.0 mi East 8.1 mph - N/A   Clear
9:15 PM 56.5 °F 46.4 °F 69% 29.78 in 10.0 mi NNE 3.5 mph - N/A   Clear
9:35 PM 57.9 °F 45.3 °F 63% 29.79 in 10.0 mi NNE 5.8 mph - N/A   Clear
9:55 PM 56.5 °F 45.3 °F 66% 29.81 in 10.0 mi NNW 13.8 mph - N/A   Clear
10:15 PM 54.7 °F 45.1 °F 70% 29.80 in 10.0 mi NW 5.8 mph - N/A   Clear
10:35 PM 53.8 °F 44.8 °F 72% 29.80 in 10.0 mi WNW 4.6 mph - N/A   Clear
10:55 PM 53.4 °F 45.5 °F 75% 29.79 in 10.0 mi SW 5.8 mph - N/A   Clear
11:15 PM 55.8 °F 43.7 °F 64% 29.79 in 10.0 mi West 4.6 mph - N/A   Clear
11:35 PM 55.6 °F 43.5 °F 64% 29.80 in 10.0 mi WSW 4.6 mph - N/A   Clear
11:55 PM 57.2 °F 43.0 °F 59% 29.79 in 10.0 mi WSW 3.5 mph - N/A   Clear